Time,TemperatureF,DewpointF,PressureIn,WindDirection,WindDirectionDegrees,WindSpeedMPH,WindSpeedGustMPH,Humidity,HourlyPrecipIn,Conditions,Clouds,dailyrainin,SoftwareType,DateUTC
2013-02-11 00:02:00,23.0,15.0,30.33,WNW,295,0.0,0.0,70,0.00,,,0.26,,2013-02-11 05:02:00,
2013-02-11 00:12:00,24.0,15.0,30.32,WNW,295,0.0,1.0,68,0.00,,,0.26,,2013-02-11 05:12:00,
2013-02-11 00:22:00,24.0,15.0,30.32,WNW,295,0.0,1.0,68,0.00,,,0.26,,2013-02-11 05:22:00,
2013-02-11 00:32:00,25.0,16.0,30.31,WNW,295,0.0,0.0,69,0.00,,,0.26,,2013-02-11 05:32:00,
2013-02-11 00:42:00,25.0,16.0,30.31,WNW,295,0.0,0.0,69,0.00,,,0.26,,2013-02-11 05:42:00,
2013-02-11 00:53:00,25.0,17.0,30.31,WNW,295,0.0,0.0,71,0.00,,,0.26,,2013-02-11 05:53:00,
2013-02-11 01:02:00,25.0,18.0,30.30,West,273,0.0,2.0,74,0.00,,,0.26,,2013-02-11 06:02:00,
2013-02-11 01:12:00,25.0,18.0,30.30,West,273,0.0,2.0,74,0.00,,,0.26,,2013-02-11 06:12:00,
2013-02-11 01:22:00,25.0,18.0,30.30,West,273,0.0,1.0,75,0.00,,,0.26,,2013-02-11 06:22:00,
2013-02-11 01:32:00,26.0,20.0,30.29,West,269,0.0,1.0,78,0.00,,,0.26,,2013-02-11 06:32:00,
2013-02-11 01:42:00,26.0,20.0,30.28,SSE,166,0.0,2.0,79,0.00,,,0.26,,2013-02-11 06:42:00,
2013-02-11 01:52:00,26.0,20.0,30.28,SSE,166,0.0,2.0,79,0.00,,,0.26,,2013-02-11 06:52:00,
2013-02-11 02:01:00,26.0,20.0,30.28,SW,217,0.0,1.0,79,0.00,,,0.26,,2013-02-11 07:01:00,
2013-02-11 02:11:00,26.0,21.0,30.28,South,171,0.0,2.0,80,0.00,,,0.26,,2013-02-11 07:11:00,
2013-02-11 02:22:00,26.0,21.0,30.28,South,171,0.0,2.0,80,0.00,,,0.26,,2013-02-11 07:22:00,
2013-02-11 02:32:00,27.0,22.0,30.27,South,172,0.0,1.0,81,0.00,,,0.26,,2013-02-11 07:32:00,
2013-02-11 02:42:00,27.0,22.0,30.26,South,172,0.0,2.0,82,0.00,,,0.26,,2013-02-11 07:42:00,
2013-02-11 02:52:00,27.0,22.0,30.26,South,172,0.0,2.0,82,0.00,,,0.26,,2013-02-11 07:52:00,
2013-02-11 03:01:00,28.0,24.0,30.25,South,172,0.0,2.0,83,0.00,,,0.26,,2013-02-11 08:01:00,
2013-02-11 03:11:00,28.0,24.0,30.24,SSW,195,1.0,3.0,83,0.00,,,0.26,,2013-02-11 08:11:00,
2013-02-11 03:21:00,28.0,24.0,30.24,SSW,195,1.0,3.0,83,0.00,,,0.26,,2013-02-11 08:21:00,
2013-02-11 03:32:00,28.0,23.0,30.22,SSW,208,0.0,3.0,82,0.00,,,0.26,,2013-02-11 08:32:00,
2013-02-11 03:42:00,28.0,23.0,30.21,SSW,208,0.0,1.0,82,0.00,,,0.26,,2013-02-11 08:42:00,
2013-02-11 03:52:00,28.0,23.0,30.21,SSW,208,0.0,1.0,82,0.00,,,0.26,,2013-02-11 08:52:00,
2013-02-11 04:01:00,28.0,24.0,30.22,SSW,208,0.0,1.0,83,0.00,,,0.26,,2013-02-11 09:01:00,
2013-02-11 04:12:00,28.0,24.0,30.22,SSW,208,0.0,1.0,83,0.00,,,0.26,,2013-02-11 09:12:00,
2013-02-11 04:21:00,28.0,24.0,30.21,SSW,203,1.0,5.0,83,0.00,,,0.26,,2013-02-11 09:21:00,
2013-02-11 04:32:00,29.0,25.0,30.21,South,182,0.0,3.0,83,0.00,,,0.26,,2013-02-11 09:32:00,
2013-02-11 04:42:00,29.0,25.0,30.21,South,182,0.0,3.0,83,0.00,,,0.26,,2013-02-11 09:42:00,
2013-02-11 04:52:00,29.0,25.0,30.21,SSW,204,0.0,3.0,83,0.00,,,0.26,,2013-02-11 09:52:00,
2013-02-11 05:01:00,29.0,25.0,30.21,SSW,213,1.0,3.0,83,0.00,,,0.26,,2013-02-11 10:01:00,
2013-02-11 05:11:00,29.0,25.0,30.21,SSW,213,1.0,3.0,83,0.00,,,0.26,,2013-02-11 10:11:00,
2013-02-11 05:21:00,30.0,26.0,30.20,South,188,1.0,3.0,84,0.00,,,0.26,,2013-02-11 10:21:00,
2013-02-11 05:32:00,30.0,26.0,30.18,South,189,0.0,1.0,85,0.00,,,0.26,,2013-02-11 10:32:00,
2013-02-11 05:42:00,30.0,26.0,30.18,South,189,0.0,1.0,85,0.00,,,0.26,,2013-02-11 10:42:00,
2013-02-11 05:52:00,30.0,26.0,30.16,SSE,156,1.0,4.0,86,0.00,,,0.26,,2013-02-11 10:52:00,
2013-02-11 06:02:00,30.0,26.0,30.17,SSE,154,0.0,3.0,86,0.00,,,0.26,,2013-02-11 11:02:00,
2013-02-11 06:11:00,30.0,26.0,30.17,SSE,154,0.0,3.0,86,0.00,,,0.26,,2013-02-11 11:11:00,
2013-02-11 06:22:00,30.0,26.0,30.16,SW,230,0.0,2.0,86,0.00,,,0.26,,2013-02-11 11:22:00,
2013-02-11 06:32:00,30.0,26.0,30.15,SE,132,1.0,2.0,86,0.00,,,0.26,,2013-02-11 11:32:00,
2013-02-11 06:42:00,30.0,26.0,30.14,SE,136,0.0,1.0,86,0.00,,,0.26,,2013-02-11 11:42:00,
2013-02-11 06:52:00,30.0,26.0,30.14,SE,136,0.0,1.0,86,0.00,,,0.26,,2013-02-11 11:52:00,
2013-02-11 07:03:00,30.0,26.0,30.14,SSE,152,0.0,1.0,86,0.00,,,0.26,,2013-02-11 12:03:00,
2013-02-11 07:12:00,30.0,26.0,30.14,SSE,152,0.0,1.0,86,0.00,,,0.26,,2013-02-11 12:12:00,
2013-02-11 07:22:00,30.0,27.0,30.12,SSE,152,0.0,1.0,87,0.00,,,0.26,,2013-02-11 12:22:00,
2013-02-11 07:32:00,30.0,27.0,30.11,SE,127,1.0,4.0,87,0.00,,,0.26,,2013-02-11 12:32:00,
2013-02-11 07:42:00,31.0,28.0,30.10,SE,128,0.0,1.0,88,0.00,,,0.26,,2013-02-11 12:42:00,
2013-02-11 07:52:00,31.0,28.0,30.10,SE,128,0.0,1.0,88,0.00,,,0.26,,2013-02-11 12:52:00,
2013-02-11 08:02:00,31.0,28.0,30.08,South,178,2.0,6.0,89,0.00,,,0.26,,2013-02-11 13:02:00,
2013-02-11 08:12:00,32.0,29.0,30.09,South,183,1.0,5.0,89,0.00,,,0.26,,2013-02-11 13:12:00,
2013-02-11 08:22:00,32.0,29.0,30.09,South,183,1.0,5.0,89,0.00,,,0.26,,2013-02-11 13:22:00,
2013-02-11 08:33:00,33.0,30.0,30.07,South,190,3.0,6.0,89,0.00,,,0.26,,2013-02-11 13:33:00,
2013-02-11 08:42:00,33.0,30.0,30.07,South,190,3.0,6.0,89,0.00,,,0.26,,2013-02-11 13:42:00,
2013-02-11 08:52:00,33.0,30.0,30.06,South,175,2.0,4.0,90,0.00,,,0.26,,2013-02-11 13:52:00,
2013-02-11 09:02:00,33.0,30.0,30.05,South,170,1.0,2.0,90,0.00,,,0.26,,2013-02-11 14:02:00,
2013-02-11 09:12:00,33.0,30.0,30.05,South,170,1.0,2.0,90,0.00,,,0.26,,2013-02-11 14:12:00,
2013-02-11 09:22:00,34.0,31.0,30.04,SSE,164,1.0,6.0,90,0.00,,,0.26,,2013-02-11 14:22:00,
2013-02-11 09:33:00,34.0,31.0,30.02,SE,136,1.0,2.0,90,0.00,,,0.26,,2013-02-11 14:33:00,
2013-02-11 09:42:00,34.0,31.0,30.01,SE,136,0.0,2.0,90,0.00,,,0.26,,2013-02-11 14:42:00,
2013-02-11 09:53:00,34.0,31.0,30.01,SE,136,0.0,2.0,90,0.00,,,0.26,,2013-02-11 14:53:00,
2013-02-11 10:02:00,34.0,31.0,30.01,South,178,0.0,3.0,90,0.01,,,0.27,,2013-02-11 15:02:00,
2013-02-11 10:11:00,34.0,31.0,30.01,South,178,0.0,3.0,90,0.01,,,0.27,,2013-02-11 15:11:00,
2013-02-11 10:22:00,34.0,32.0,30.00,South,178,0.0,0.0,91,0.01,,,0.26,,2013-02-11 15:22:00,
2013-02-11 10:32:00,34.0,32.0,29.99,SSW,195,0.0,1.0,91,0.04,,,0.29,,2013-02-11 15:32:00,
2013-02-11 10:42:00,35.0,33.0,29.98,SSE,155,0.0,2.0,91,0.08,,,0.33,,2013-02-11 15:42:00,
2013-02-11 10:52:00,35.0,33.0,29.98,SSE,155,0.0,2.0,91,0.08,,,0.33,,2013-02-11 15:52:00,
2013-02-11 11:02:00,36.0,34.0,29.97,SSW,198,0.0,4.0,91,0.15,,,0.41,,2013-02-11 16:02:00,
2013-02-11 11:12:00,36.0,34.0,29.97,SSW,198,0.0,4.0,91,0.15,,,0.41,,2013-02-11 16:12:00,
2013-02-11 11:22:00,37.0,35.0,29.96,South,179,0.0,2.0,91,0.17,,,0.39,,2013-02-11 16:22:00,
2013-02-11 11:32:00,37.0,35.0,29.96,SSE,167,0.0,3.0,91,0.14,,,0.40,,2013-02-11 16:32:00,
2013-02-11 11:42:00,37.0,35.0,29.93,South,169,1.0,2.0,91,0.13,,,0.42,,2013-02-11 16:42:00,
2013-02-11 11:53:00,37.0,35.0,29.93,South,169,1.0,2.0,91,0.13,,,0.42,,2013-02-11 16:53:00,
2013-02-11 12:02:00,38.0,36.0,29.92,South,169,0.0,2.0,91,0.05,,,0.42,,2013-02-11 17:02:00,
2013-02-11 12:11:00,38.0,36.0,29.92,South,169,0.0,2.0,91,0.05,,,0.42,,2013-02-11 17:11:00,
2013-02-11 12:22:00,39.0,37.0,29.90,South,171,0.0,2.0,91,0.04,,,0.37,,2013-02-11 17:22:00,
2013-02-11 12:32:00,39.0,37.0,29.89,South,171,1.0,3.0,91,0.04,,,0.38,,2013-02-11 17:32:00,
2013-02-11 12:42:00,39.0,37.0,29.89,South,171,1.0,3.0,91,0.04,,,0.38,,2013-02-11 17:42:00,
2013-02-11 12:53:00,40.0,38.0,29.88,SW,224,1.0,3.0,92,0.02,,,0.38,,2013-02-11 17:53:00,
2013-02-11 13:02:00,39.0,37.0,29.85,SSW,209,1.0,4.0,91,0.02,,,0.38,,2013-02-11 18:02:00,
2013-02-11 13:11:00,39.0,37.0,29.85,SSW,209,1.0,4.0,91,0.02,,,0.38,,2013-02-11 18:11:00,
2013-02-11 13:22:00,40.0,38.0,29.83,SSW,202,2.0,4.0,92,0.02,,,0.33,,2013-02-11 18:22:00,
2013-02-11 13:32:00,41.0,39.0,29.82,SSW,205,2.0,4.0,92,0.01,,,0.33,,2013-02-11 18:32:00,
2013-02-11 13:42:00,41.0,39.0,29.82,SSW,207,3.0,8.0,92,0.02,,,0.34,,2013-02-11 18:42:00,
2013-02-11 13:54:00,41.0,39.0,29.82,SSW,207,3.0,8.0,92,0.02,,,0.34,,2013-02-11 18:54:00,
2013-02-11 14:02:00,42.0,40.0,29.82,SW,215,3.0,10.0,92,0.03,,,0.35,,2013-02-11 19:02:00,
2013-02-11 14:11:00,41.0,39.0,29.80,SW,219,2.0,6.0,92,0.02,,,0.30,,2013-02-11 19:11:00,
2013-02-11 14:22:00,41.0,39.0,29.80,SW,219,2.0,6.0,92,0.02,,,0.30,,2013-02-11 19:22:00,
2013-02-11 14:32:00,41.0,39.0,29.80,SW,226,2.0,8.0,92,0.02,,,0.30,,2013-02-11 19:32:00,
2013-02-11 14:42:00,41.0,39.0,29.80,SW,226,2.0,8.0,92,0.02,,,0.30,,2013-02-11 19:42:00,
2013-02-11 14:52:00,41.0,39.0,29.80,WSW,256,2.0,6.0,92,0.01,,,0.30,,2013-02-11 19:52:00,
2013-02-11 15:01:00,41.0,39.0,29.78,SSW,213,1.0,9.0,92,0.01,,,0.31,,2013-02-11 20:01:00,
2013-02-11 15:11:00,41.0,39.0,29.77,WSW,252,2.0,4.0,91,0.01,,,0.28,,2013-02-11 20:11:00,
2013-02-11 15:22:00,41.0,39.0,29.77,WSW,252,2.0,4.0,91,0.01,,,0.28,,2013-02-11 20:22:00,
2013-02-11 15:32:00,41.0,39.0,29.76,SSW,197,2.0,4.0,92,0.01,,,0.28,,2013-02-11 20:32:00,
2013-02-11 15:42:00,41.0,39.0,29.75,SSW,198,4.0,10.0,92,0.01,,,0.28,,2013-02-11 20:42:00,
2013-02-11 15:52:00,41.0,39.0,29.75,SSW,198,4.0,10.0,92,0.01,,,0.28,,2013-02-11 20:52:00,
2013-02-11 16:02:00,41.0,39.0,29.75,SW,219,4.0,8.0,92,0.00,,,0.28,,2013-02-11 21:02:00,
2013-02-11 16:12:00,40.0,38.0,29.74,SSW,207,2.0,8.0,92,0.00,,,0.27,,2013-02-11 21:12:00,
2013-02-11 16:22:00,40.0,38.0,29.74,SSW,207,2.0,8.0,92,0.00,,,0.27,,2013-02-11 21:22:00,
2013-02-11 16:32:00,40.0,38.0,29.73,SSW,213,2.0,6.0,92,0.00,,,0.27,,2013-02-11 21:32:00,
2013-02-11 16:42:00,40.0,38.0,29.73,SSW,213,2.0,6.0,92,0.00,,,0.27,,2013-02-11 21:42:00,
2013-02-11 16:52:00,40.0,38.0,29.72,SW,234,2.0,10.0,92,0.00,,,0.27,,2013-02-11 21:52:00,
2013-02-11 17:02:00,40.0,38.0,29.72,West,277,1.0,5.0,92,0.00,,,0.27,,2013-02-11 22:02:00,
2013-02-11 17:12:00,40.0,38.0,29.72,WNW,295,2.0,7.0,92,0.01,,,0.28,,2013-02-11 22:12:00,
2013-02-11 17:22:00,40.0,38.0,29.72,WNW,295,2.0,7.0,92,0.01,,,0.28,,2013-02-11 22:22:00,
2013-02-11 17:32:00,40.0,38.0,29.72,WSW,238,1.0,5.0,92,0.01,,,0.28,,2013-02-11 22:32:00,
2013-02-11 17:42:00,40.0,38.0,29.72,WSW,238,1.0,5.0,92,0.01,,,0.28,,2013-02-11 22:42:00,
2013-02-11 17:52:00,39.0,37.0,29.72,SW,216,1.0,7.0,92,0.01,,,0.28,,2013-02-11 22:52:00,
2013-02-11 18:02:00,39.0,37.0,29.71,SW,217,0.0,0.0,92,0.01,,,0.28,,2013-02-11 23:02:00,
2013-02-11 18:11:00,39.0,37.0,29.71,SW,217,0.0,0.0,92,0.01,,,0.28,,2013-02-11 23:11:00,
2013-02-11 18:22:00,39.0,37.0,29.70,SW,215,0.0,0.0,92,0.00,,,0.28,,2013-02-11 23:22:00,
2013-02-11 18:32:00,39.0,37.0,29.70,SSW,213,2.0,7.0,92,0.00,,,0.28,,2013-02-11 23:32:00,
2013-02-11 18:42:00,39.0,37.0,29.70,SSW,213,2.0,7.0,92,0.00,,,0.28,,2013-02-11 23:42:00,
2013-02-11 18:52:00,39.0,37.0,29.70,WSW,244,1.0,6.0,92,0.00,,,0.28,,2013-02-11 23:52:00,
2013-02-11 19:02:00,39.0,37.0,29.69,West,262,0.0,4.0,92,0.00,,,0.28,,2013-02-12 00:02:00,
2013-02-11 19:12:00,39.0,37.0,29.69,West,262,0.0,4.0,92,0.00,,,0.28,,2013-02-12 00:12:00,
2013-02-11 19:22:00,39.0,37.0,29.69,WSW,249,0.0,2.0,92,0.00,,,0.28,,2013-02-12 00:22:00,
2013-02-11 19:32:00,39.0,37.0,29.68,WNW,288,0.0,3.0,92,0.00,,,0.28,,2013-02-12 00:32:00,
2013-02-11 19:42:00,39.0,37.0,29.68,WNW,288,0.0,3.0,92,0.00,,,0.28,,2013-02-12 00:42:00,
2013-02-11 19:52:00,39.0,37.0,29.68,WNW,288,0.0,1.0,92,0.00,,,0.28,,2013-02-12 00:52:00,
2013-02-11 20:02:00,39.0,37.0,29.68,WNW,288,0.0,2.0,92,0.00,,,0.28,,2013-02-12 01:02:00,
2013-02-11 20:11:00,39.0,37.0,29.68,WNW,288,0.0,2.0,92,0.00,,,0.28,,2013-02-12 01:11:00,
2013-02-11 20:22:00,39.0,37.0,29.68,WNW,288,0.0,0.0,92,0.00,,,0.28,,2013-02-12 01:22:00,
2013-02-11 20:32:00,39.0,37.0,29.68,WNW,290,1.0,3.0,92,0.00,,,0.28,,2013-02-12 01:32:00,
2013-02-11 20:42:00,39.0,37.0,29.68,WNW,290,1.0,3.0,92,0.00,,,0.28,,2013-02-12 01:42:00,
2013-02-11 20:52:00,39.0,37.0,29.68,WNW,290,0.0,2.0,92,0.00,,,0.28,,2013-02-12 01:52:00,
2013-02-11 21:02:00,38.0,36.0,29.68,WNW,290,0.0,1.0,92,0.00,,,0.28,,2013-02-12 02:02:00,
2013-02-11 21:12:00,38.0,36.0,29.69,NNW,332,1.0,3.0,92,0.00,,,0.28,,2013-02-12 02:12:00,
2013-02-11 21:22:00,38.0,36.0,29.69,NNW,332,1.0,3.0,92,0.00,,,0.28,,2013-02-12 02:22:00,
2013-02-11 21:32:00,38.0,36.0,29.69,WNW,294,0.0,3.0,92,0.00,,,0.28,,2013-02-12 02:32:00,
2013-02-11 21:42:00,38.0,36.0,29.69,WNW,294,0.0,3.0,92,0.00,,,0.28,,2013-02-12 02:42:00,
2013-02-11 21:53:00,38.0,36.0,29.68,WNW,287,0.0,2.0,92,0.00,,,0.28,,2013-02-12 02:53:00,
2013-02-11 22:02:00,39.0,37.0,29.68,WNW,287,0.0,2.0,92,0.00,,,0.28,,2013-02-12 03:02:00,
2013-02-11 22:11:00,38.0,36.0,29.67,WNW,299,0.0,3.0,92,0.00,,,0.28,,2013-02-12 03:11:00,
2013-02-11 22:21:00,38.0,36.0,29.67,WNW,299,0.0,3.0,92,0.00,,,0.28,,2013-02-12 03:21:00,
2013-02-11 22:32:00,38.0,36.0,29.67,West,268,0.0,3.0,92,0.00,,,0.28,,2013-02-12 03:32:00,
2013-02-11 22:42:00,38.0,36.0,29.68,WNW,296,1.0,4.0,92,0.00,,,0.28,,2013-02-12 03:42:00,
2013-02-11 22:52:00,38.0,36.0,29.68,WNW,296,1.0,4.0,92,0.00,,,0.28,,2013-02-12 03:52:00,
2013-02-11 23:01:00,38.0,36.0,29.69,WNW,298,2.0,4.0,92,0.00,,,0.28,,2013-02-12 04:01:00,
2013-02-11 23:11:00,38.0,36.0,29.69,WNW,298,2.0,4.0,92,0.00,,,0.28,,2013-02-12 04:11:00,
2013-02-11 23:21:00,38.0,36.0,29.69,WNW,292,2.0,5.0,92,0.00,,,0.28,,2013-02-12 04:21:00,
2013-02-11 23:31:00,39.0,37.0,29.70,WNW,292,3.0,9.0,92,0.00,,,0.28,,2013-02-12 04:31:00,
2013-02-11 23:42:00,39.0,37.0,29.70,WNW,292,3.0,9.0,92,0.00,,,0.28,,2013-02-12 04:42:00,
2013-02-11 23:52:00,38.0,36.0,29.70,NW,309,4.0,12.0,92,0.00,,,0.28,,2013-02-12 04:52:00,